Home > Weather > Newmarket > Past weeks

Flag for Canada Weather for the Past 2 Weeks in Newmarket, Ontario, Canada

Now
36 °F

Passing clouds.


Feels Like: 24 °F
Forecast: 27 / 33 °F
Wind: 22 mph from Southwest

Location: Borden

Current Time: Feb 6, 2016 at 2:37:45 PM

Latest Report: Feb 6, 2016 at 2:00 PM


Visibility: 9 mi

Pressure: 30.13 "Hg

Humidity: 56%

Dew point: 21 °F

Location of NewmarketLocation

Historic Weather in Newmarket — Graph

°F

Newmarket Temperature Yesterday

Maximum temperature yesterday: 34 °F (at 2:00 PM)
Minimum temperature yesterday: 25 °F (at 2:00 AM)
Average temperature yesterday: 28 °F

High & Low Weather Summary for the Past Weeks

 TemperatureHumidityPressure
High57 °F (Feb 3, 3:00 PM)100% (Jan 23, 1:00 AM)30.35 "Hg (Jan 23, 1:00 AM)
Low-2 °F (Jan 23, 5:00 AM)46% (Jan 22, 1:00 PM)29.40 "Hg (Jan 31, 9:57 PM)
Average30 °F79%29.92 "Hg
* Reported Jan 22 1:00 PM — Feb 6 1:00 PM, Newmarket, Weather by CustomWeather, © 2016

Note: Actual official high and low records may vary slightly from our data, if they occured in-between our weather recording intervals... More about our weather records

Advertising

Newmarket Weather History for the Previous 24 Hours

 ConditionsComfort  
Time TempWeatherWind HumidityBarometerVisibility
1:00 PM
Sat, Feb 6
34 °FPassing clouds.9 mph60%30.15 "Hg9 mi
12:00 PM32 °FPassing clouds.13 mph69%30.17 "Hg9 mi
11:00 AM32 °FPartly sunny.8 mph69%30.19 "Hg9 mi
10:00 AM30 °FBroken clouds.8 mph80%30.20 "Hg9 mi
9:00 AM30 °FPartly sunny.10 mph86%30.20 "Hg9 mi
8:02 AM23 °FOvercast.5 mph100%30.17 "Hg4 mi
7:03 AM28 °FOvercast.2 mph93%30.17 "Hg3 mi
6:59 AM28 °FOvercast.2 mph93%30.16 "Hg2 mi
6:03 AM27 °FOvercast.2 mph93%30.16 "Hg2 mi
5:00 AM28 °FLight snow. Ice fog.No wind93%30.19 "Hg2 mi
4:00 AM28 °FMostly cloudy.No wind93%30.19 "Hg2 mi
3:52 AM28 °FMostly cloudy.No wind93%30.16 "Hg2 mi
3:02 AM28 °FLight snow. Mostly cloudy.2 mph93%30.17 "Hg3 mi
2:55 AM28 °FMostly cloudy.2 mph93%30.18 "Hg3 mi
2:00 AM28 °FOvercast.5 mph93%30.21 "Hg9 mi
1:00 AM28 °FOvercast.5 mph93%30.22 "Hg8 mi
12:45 AM28 °FPassing clouds.5 mph93%30.19 "Hg9 mi
12:00 AM28 °FLight snow. Overcast.5 mph93%30.24 "Hg1 mi
11:03 PM
Fri, Feb 5
28 °FLight snow. Overcast.5 mph86%30.22 "Hg9 mi
10:55 PM28 °FLight snow. Overcast.5 mph86%30.23 "Hg2 mi
10:00 PM30 °FOvercast.7 mph75%30.28 "Hg9 mi
9:00 PM30 °FMostly cloudy.5 mph80%30.29 "Hg9 mi
8:00 PM30 °FOvercast.6 mph75%30.29 "Hg9 mi
7:00 PM30 °FOvercast.8 mph75%30.30 "Hg9 mi
6:00 PM30 °FOvercast.8 mph69%30.29 "Hg9 mi
5:00 PM32 °FOvercast.10 mph60%30.28 "Hg9 mi
4:00 PM32 °FOvercast.9 mph60%30.29 "Hg9 mi
3:00 PM34 °FOvercast.6 mph51%30.27 "Hg9 mi
2:00 PM34 °FOvercast.12 mph48%30.28 "Hg9 mi
Weather by CustomWeather, © 2016

See weather overviewHow to use our weather pages